Showing default

OPS 8068, 1580

Orbit data source: Space-Track

OPS 8068, 1580 is a payload satellite owned by USAF SSD (US) in SSO that was launched on Fri, 10 Sep 1965 UTC via a THOR BURNER 1 launch vehicle from the Air Force Western Test Range (AFWTR). Payload-class satellites include a variety of spacecraft equipped with specific instruments for various scientific and technological missions. These include communications satellites like Starlink; space stations such as the ISS; scientific satellites like the Hubble; Earth observation satellites from companies like Planet Labs, Umbra, and HawkEye 360; GPS; miniature CubeSats for education and research; and military/defense satellites.

Loading next visibility...
Identifier
1580, 1965-072A
Orbit
SSO
Country
Flag of USUS
Related business
Manufacturer
RCA/East Windsor
Mission
Spacecraft
Bus & Motor
P35, Unknown motor
Mass
72 kg wet, 72 kg dry
Launch date (UTC)
1965-09-10 (61 years ago)
Launch vehicle
THOR BURNER 1
Launch site
Air Force Western Test Range (AFWTR)
Object type
Payload
Rocket body
Debris
Shape & HBR
Unknown
Radar Cross Section
Medium (>0.1 m² and <1 m²)

Expand to show TLE details & history
Last TLE update: 6 hours ago

TLE from 6 hours ago
0 OPS 8068
1 01580U 65072A   26070.95836105  .00000216  00000-0  78716-4 0  9998
2 01580  98.4054 230.6298 0228512 333.1741  25.7770 14.29589164119129
Epoch: 2026-03-11T23:00Z
TLE epoch observation values (Epoch: 2026-03-11T23:00:02.394Z)
Latitude
-0.00003°
Longitude
76.0047°
Altitude
649.18 km
Speed
7.61 km/s
True Right ascension
15h 22m 31s
True Declination
0° 00' 00"
Sunlit
Object was in full shadow at epoch
Visualization orbit readout
Latitude
Unknown
Longitude
Unknown
Altitude
Unknown
Speed
Unknown
Apparent Right ascension
Unknown
Apparent Declination
Unknown
Sunlit
N/A
Visualization observer readout
Local Sidereal Time
09:10:36
Azimuth
Unknown
Elevation
Unknown
Doppler factor
Unknown
Orbital elements
Apogee altitude
954.039 km
Perigee altitude
626.428 km
Semi-major axis
7,168.371 km
Eccentricity
0.02285
Inclination
98.4054°
RAAN
230.6298°
Arg. of periapsis
333.1741°
True anomaly
26.94568°
Mean anomaly
25.777°
Eccentric anomaly
26.3583°
Mean motion
3.57612 °/min
Orbital period
100.67 mins
BSTAR
0.000078716
Loading maneuver chart data...
Computing Atmospheric mass density...
Loading historical data...
Loading historical data...
Loading historical data...
Loading historical data...
Loading historical data...
Loading historical data...
Loading historical data...

Documentation

Showing up to 5 results
|